Theta_e
317 325 329 333 338 342 344 343 341 343 340 341 343 346 343 339 341 350 345 335 332 330 330 329 328 328 326 325 325 324 323 323 324 324 325 325 327 329 332 334 336 337 337 337 337 336 336 335 335
318 326 328 330 338 339 344 341 342 341 339 341 341 341 341 340 338 338 342 335 332 330 328 327 328 326 325 325 326 328 330 331 332 332 332 334 336 337 337 334 329 324 323 322 322 322 322 323 324
319 326 327 336 337 339 342 340 339 339 339 340 338 338 337 338 338 343 340 333 332 329 328 326 327 327 328 330 333 336 338 339 340 340 338 337 336 332 325 322 322 322 322 322 321 321 321 322 323
319 324 324 332 337 340 340 339 337 338 340 342 344 345 343 344 343 344 334 333 331 329 329 328 329 330 332 335 339 341 341 336 333 328 324 323 323 323 322 319 317 316 316 315 314 315 315 317 318
320 323 329 330 333 337 338 338 337 341 341 342 345 350 351 346 344 338 334 333 331 330 331 331 332 334 337 340 340 338 326 320 321 322 323 321 320 317 314 313 313 313 312 312 312 311 311 311 312
321 322 330 330 332 338 338 339 339 339 340 342 345 350 351 346 345 334 334 333 332 332 334 335 336 338 340 337 325 320 321 322 324 322 319 316 314 314 314 313 312 312 312 312 312 312 312 311 310
322 326 329 326 331 336 338 338 339 339 339 344 348 349 350 348 344 335 335 333 333 335 336 338 340 340 333 319 321 321 320 321 320 316 315 314 314 314 314 314 314 314 313 313 313 312 312 311 310
318 324 325 325 330 328 335 338 338 338 341 346 347 347 351 349 338 336 336 335 335 337 340 341 339 330 319 321 321 320 319 318 317 315 315 315 315 315 314 314 314 315 314 314 313 312 312 311 311
319 326 327 326 327 326 333 337 335 338 343 347 346 345 346 344 339 337 336 336 337 341 341 331 323 319 318 321 322 321 320 318 316 316 315 315 315 315 315 315 315 314 313 312 310 309 309 308 307
321 326 327 325 324 324 332 335 335 336 339 346 345 343 345 345 346 340 339 337 341 340 325 319 317 316 319 321 322 321 320 318 317 316 315 315 315 315 315 315 314 313 311 310 311 311 309 308 307
320 325 323 322 322 322 328 333 335 336 339 344 345 348 349 345 346 342 342 341 342 325 317 318 319 321 323 323 324 323 320 318 317 316 316 315 315 316 317 317 316 314 311 312 312 309 308 307 306
321 320 320 320 318 320 330 333 334 336 337 339 344 345 349 345 343 339 342 343 340 322 319 324 325 325 326 326 325 324 320 318 317 316 316 315 315 317 318 317 315 312 312 313 311 308 307 306 306
321 321 319 319 317 321 328 334 334 335 336 339 344 346 348 348 345 341 340 343 326 320 326 327 328 328 326 325 325 323 320 318 317 316 316 315 317 319 319 317 314 313 313 314 313 310 308 307 307
319 319 319 318 322 330 333 332 332 334 334 335 343 343 347 348 346 342 340 337 324 322 326 328 328 327 325 324 323 322 319 318 317 317 315 316 318 319 319 317 315 314 315 315 313 312 309 307 307
317 322 322 319 319 321 326 329 333 330 334 339 340 343 347 347 346 343 339 337 324 324 327 327 328 327 326 324 324 320 318 319 318 316 315 317 319 319 318 316 315 315 315 314 313 312 309 309 309
320 321 322 320 321 318 324 325 321 320 336 340 342 345 347 345 343 343 339 337 328 325 326 327 328 328 326 323 321 320 320 319 318 316 316 318 319 318 317 316 314 314 313 313 311 310 309 310 311
320 322 322 321 320 322 321 326 326 322 331 338 345 346 347 342 341 342 342 339 334 332 326 327 327 325 322 321 321 321 320 319 317 316 318 318 318 318 316 315 314 313 313 311 310 309 309 311 311
322 322 321 322 321 327 327 329 328 326 331 332 336 345 341 339 342 338 340 339 333 327 327 327 324 322 322 321 320 321 322 321 317 317 319 318 318 316 315 314 313 312 312 310 309 308 308 308 309
319 321 323 322 321 328 328 329 329 330 329 326 332 335 335 336 335 335 336 333 327 325 322 322 322 322 322 322 322 320 323 320 317 319 318 318 317 315 315 313 312 311 310 308 308 308 307 308 308
321 324 324 322 321 328 328 328 326 329 331 330 328 330 333 332 331 329 330 325 322 321 322 326 324 322 320 321 322 323 322 318 318 318 318 317 316 314 313 312 311 309 308 308 307 307 307 307 308
323 324 323 323 322 323 324 326 328 326 332 332 330 328 331 331 330 329 328 325 323 323 327 323 322 322 321 323 322 322 320 319 319 319 318 316 315 314 312 310 309 308 307 307 306 307 306 306 307
325 322 322 323 325 326 323 327 326 326 331 333 333 332 331 330 330 329 327 325 324 326 325 325 324 324 324 323 323 322 320 319 319 318 317 316 314 312 311 309 307 306 307 306 306 305 305 306 306
324 323 324 324 326 324 326 327 326 327 329 334 333 332 331 331 330 329 327 326 327 328 326 326 325 325 324 324 323 321 319 319 318 317 315 313 312 311 308 306 305 305 305 305 305 306 306 306 306
322 323 323 323 324 327 326 328 326 328 329 332 332 330 331 329 328 328 328 328 328 326 326 326 325 324 324 322 320 319 317 316 315 313 312 310 307 306 306 305 306 305 305 306 307 306 306 305 305
325 326 324 323 325 326 325 328 328 326 329 331 330 326 326 327 327 328 328 327 323 322 322 321 320 319 318 317 315 313 312 311 310 308 306 305 306 306 305 305 306 306 306 305 305 304 304 304 305
324 324 324 325 326 326 324 329 328 330 331 331 322 320 321 322 322 321 319 317 315 312 310 310 310 310 308 307 306 306 306 305 305 305 305 306 306 305 306 306 306 306 306 305 304 304 304 304 305
324 326 321 326 324 326 326 328 324 330 331 326 320 318 316 314 313 312 311 310 310 311 310 310 309 307 306 306 306 305 305 305 305 305 305 305 305 305 306 306 306 306 306 305 305 304 305 304 307
325 322 328 327 330 329 327 328 329 329 330 323 320 317 314 312 311 310 312 311 309 310 308 309 307 306 305 305 305 305 305 305 306 306 305 306 306 306 306 306 306 306 306 305 305 305 305 305 306
326 325 326 326 327 330 330 327 324 324 326 324 318 315 313 311 311 313 314 311 310 308 308 307 306 305 305 305 305 305 305 306 306 306 305 305 306 305 305 306 306 306 306 305 305 305 304 304 304
325 325 326 325 325 327 327 327 317 318 319 318 316 313 312 312 314 312 311 312 310 308 307 306 305 304 305 305 305 305 305 306 306 305 305 306 306 306 305 306 307 307 307 306 305 304 304 303 303
Wind_Speed
11 8 4 2 2 2 3 3 1 5 2 3 5 3 8 7 5 1 2 8 9 9 11 11 12 12 12 13 14 15 15 16 15 15 15 15 15 14 13 12 11 9 8 7 6 6 6 6 6
7 5 2 1 2 4 2 1 4 4 6 10 9 10 3 3 8 4 9 10 10 10 12 13 12 13 14 15 16 16 16 16 16 15 15 14 13 12 11 10 10 10 9 9 9 9 9 10 10
3 3 1 2 2 4 3 6 6 7 14 5 5 3 4 2 4 5 13 14 13 13 14 15 14 15 16 16 17 16 15 15 15 14 13 12 12 11 11 11 11 10 10 10 10 10 10 10 11
1 1 3 2 4 2 0 12 9 13 7 6 4 3 4 3 5 10 16 16 16 16 16 16 15 16 15 16 15 15 13 13 14 14 13 13 12 12 11 10 10 10 10 10 11 11 12 13 14
2 1 2 2 1 1 2 15 17 10 4 7 10 5 4 4 11 15 19 17 16 17 17 16 15 15 15 15 14 14 14 14 15 15 14 12 10 10 10 10 10 10 11 12 13 14 15 16 17
2 1 2 2 0 1 3 15 15 10 5 4 8 8 4 11 9 18 19 19 18 18 18 17 15 15 15 15 15 16 16 15 14 11 10 10 9 9 9 9 10 12 13 15 16 17 19 19 20
2 1 2 3 1 2 4 17 15 13 4 8 5 10 4 13 16 20 19 19 20 19 19 18 17 16 16 17 17 16 14 13 11 9 8 8 6 7 9 10 12 15 17 18 20 21 21 22 23
3 2 4 3 2 1 3 16 12 16 8 2 10 5 7 20 24 23 21 21 21 20 20 19 20 20 20 19 16 15 13 11 10 9 7 4 4 7 9 12 15 17 19 20 21 23 24 25 25
3 2 2 5 5 1 2 7 9 11 4 10 11 4 7 27 26 24 25 24 22 21 21 21 22 22 22 20 16 13 10 9 8 5 3 3 5 8 11 15 18 19 20 21 23 24 26 27 28
1 0 2 4 5 3 6 12 11 9 14 16 10 10 16 29 29 28 28 27 26 26 25 24 23 23 21 19 16 13 11 9 6 2 1 2 6 10 14 17 19 20 22 24 27 30 31 31 30
2 1 2 4 7 5 8 10 10 10 13 23 26 18 26 31 31 28 26 26 27 26 28 28 26 25 22 19 16 13 10 7 4 3 1 6 10 14 17 20 22 22 23 27 31 33 33 34 33
2 5 5 2 3 6 8 7 9 20 19 23 21 22 29 33 33 31 26 22 21 25 28 27 25 22 19 17 15 11 8 6 4 1 5 8 10 13 19 22 21 21 24 27 29 31 33 33 33
2 6 5 11 3 7 7 13 7 25 17 12 19 23 29 31 31 24 25 22 28 30 29 26 22 18 16 16 13 10 6 4 2 5 8 10 13 18 23 22 21 22 24 28 31 34 36 36 36
4 8 12 3 2 3 7 7 7 17 22 13 23 27 29 31 32 25 26 31 33 31 28 25 21 17 15 14 10 6 5 5 6 7 10 13 17 21 24 22 21 23 27 29 33 37 39 39 38
3 7 6 11 7 2 1 4 9 8 18 20 24 27 26 28 26 25 30 32 32 32 29 24 21 16 14 13 8 7 6 7 8 11 12 15 19 22 23 21 22 25 28 31 35 39 41 37 32
3 2 4 8 15 4 2 4 7 14 10 22 21 19 21 19 21 25 29 34 32 23 21 22 18 16 12 10 7 6 7 8 10 11 13 17 21 23 24 24 25 28 30 33 35 38 36 31 27
5 2 4 2 9 5 2 6 20 15 10 16 13 15 16 17 22 28 29 30 31 26 27 19 15 13 10 7 6 5 5 9 15 13 15 19 24 25 24 25 27 30 32 34 36 34 32 27 25
1 1 2 3 7 10 6 8 12 15 2 4 7 12 14 17 20 18 25 25 25 29 21 17 14 10 3 1 4 11 15 11 17 16 19 23 28 26 25 27 29 32 33 33 34 34 28 29 22
3 2 2 2 5 3 5 7 12 10 13 7 3 10 10 12 14 18 18 21 26 25 23 21 14 8 11 20 18 12 25 17 16 19 23 29 29 28 28 29 31 32 30 31 28 23 26 26 21
4 2 5 1 5 2 2 6 5 15 12 11 8 8 8 10 12 15 21 27 26 28 25 16 9 5 13 16 16 18 26 17 19 20 27 31 29 28 29 31 32 33 29 23 22 22 22 21 20
3 5 4 4 5 2 4 3 3 5 10 13 15 5 6 9 14 18 23 27 26 25 21 7 19 9 6 16 21 20 20 19 23 27 30 30 29 30 31 32 32 33 28 20 20 19 21 24 20
3 3 3 4 5 9 2 7 1 6 8 13 14 10 7 9 12 16 23 28 24 18 13 10 21 23 9 11 17 18 21 23 28 30 31 30 28 30 32 33 33 32 22 18 17 18 18 19 19
4 5 4 4 5 4 1 4 2 4 4 7 9 8 9 10 13 16 17 18 16 13 12 13 9 8 11 16 16 18 23 26 28 28 28 29 29 32 33 29 24 21 14 15 15 17 18 18 18
1 4 2 1 1 4 3 3 1 2 3 2 6 8 10 14 18 18 17 14 9 5 6 9 8 9 11 11 15 18 22 25 25 27 29 27 31 25 17 17 17 14 14 16 18 20 21 18 19
10 10 8 3 5 5 2 4 3 1 3 1 8 10 12 16 17 14 9 3 3 3 4 5 4 6 9 14 19 23 25 26 27 29 28 24 17 13 14 15 11 15 16 15 17 19 20 18 18
6 3 5 8 6 11 3 4 2 3 7 12 12 12 13 15 13 11 11 11 10 7 6 8 10 14 17 19 20 21 23 25 25 22 19 15 13 13 13 13 12 14 15 14 15 19 20 19 15
2 2 2 2 2 5 2 1 4 4 7 9 10 11 13 13 14 14 11 8 8 10 12 15 18 20 20 21 21 19 18 14 12 12 11 13 12 13 13 14 12 13 13 12 11 16 19 14 11
4 2 2 2 5 9 4 5 6 7 8 6 7 10 12 13 12 9 9 12 15 17 19 21 22 21 18 15 12 10 9 10 12 14 14 13 13 13 15 14 12 12 11 11 11 10 16 16 14
2 3 4 1 3 5 7 5 3 6 7 8 9 12 12 9 7 8 11 14 19 20 20 21 20 17 13 10 8 10 10 11 13 14 13 13 13 14 14 13 12 11 10 11 11 10 14 13 14
2 2 2 3 4 4 4 7 9 7 5 12 14 12 8 7 7 11 14 17 20 22 23 21 17 12 9 10 11 11 10 11 13 15 15 13 14 13 13 11 10 10 10 12 9 9 10 12 13
Wind_Direction
357 26 82 72 180 79 105 119 269 183 132 113 148 168 153 145 167 76 271 162 153 151 143 127 121 125 124 120 116 112 109 108 105 103 102 101 100 96 90 85 79 76 70 59 43 25 10 358 347
357 22 54 76 57 91 123 217 202 109 103 119 102 102 11 223 212 247 190 157 149 152 132 121 122 123 124 121 117 115 114 110 107 105 104 101 97 90 83 72 59 48 43 37 26 15 1 348 338
0 26 355 61 88 74 133 186 149 132 140 132 132 224 192 221 238 220 180 156 153 148 135 127 130 132 130 127 124 120 116 113 108 104 102 98 94 82 68 61 56 49 39 27 17 7 357 347 339
330 76 53 57 83 107 347 168 156 145 178 219 200 209 195 237 197 163 162 160 155 147 138 133 141 140 135 130 126 122 114 109 106 103 99 95 88 80 68 56 45 32 21 11 1 352 344 336 330
185 116 102 88 33 298 162 177 170 170 173 183 187 160 140 160 141 164 163 160 156 149 144 142 147 144 139 137 132 125 120 114 108 103 97 90 84 69 59 48 38 28 16 8 359 352 344 336 328
169 153 171 119 314 295 146 177 187 205 210 170 182 167 143 167 165 167 164 161 160 155 150 150 150 149 144 140 135 129 121 117 115 105 95 88 78 69 55 43 32 23 14 2 354 347 340 335 329
205 137 117 123 178 229 161 168 186 192 226 219 165 156 167 172 176 170 167 165 164 161 159 157 157 155 148 142 138 132 126 123 122 117 109 97 80 59 40 28 17 9 3 355 349 345 338 334 330
147 96 146 135 164 111 142 171 199 197 211 165 177 190 181 177 172 173 170 171 170 167 168 167 165 160 154 147 143 138 138 138 139 136 126 104 58 33 25 14 9 360 352 347 341 338 334 331 327
130 145 149 142 187 138 174 196 168 201 198 189 201 208 198 171 172 175 176 176 175 175 176 175 170 167 161 156 151 149 147 153 148 142 109 65 35 21 9 0 352 346 341 340 340 338 336 333 327
189 76 187 196 179 226 208 211 171 177 198 211 207 208 177 176 178 181 181 180 181 182 180 179 174 171 170 167 163 167 170 170 166 153 128 45 18 6 1 352 347 344 344 346 344 342 337 333 327
180 321 215 274 249 224 212 214 190 188 205 214 206 181 173 180 184 187 187 188 186 183 180 177 177 177 175 175 177 179 182 182 191 206 28 10 3 357 352 346 343 344 345 344 342 339 335 329 323
254 254 254 312 292 173 183 187 198 194 216 222 209 194 181 187 190 192 188 187 183 183 183 182 183 185 183 188 187 197 196 199 210 269 358 352 344 346 348 347 343 340 338 338 338 336 333 329 325
265 327 323 310 316 191 182 198 204 217 223 234 199 200 194 193 196 190 192 189 192 187 184 186 188 192 196 196 206 207 206 220 293 327 327 331 340 346 347 341 336 331 330 330 333 334 333 329 324
318 307 315 5 111 188 159 179 202 235 222 216 201 211 204 198 198 186 193 199 196 193 192 191 192 194 203 211 209 228 246 267 289 303 313 328 338 337 337 331 325 324 323 324 328 333 333 329 323
330 342 344 28 3 8 217 190 222 291 203 207 207 211 200 201 191 193 202 200 200 193 191 196 196 195 218 225 251 236 250 263 281 300 311 323 326 328 328 322 317 320 323 326 328 332 332 327 319
25 81 354 37 6 44 310 275 22 340 212 218 214 206 200 194 187 200 204 204 200 199 200 196 197 213 224 236 229 237 262 283 302 300 309 316 321 322 321 316 313 319 325 329 331 331 329 322 316
16 356 333 54 38 338 342 336 339 339 257 231 218 200 187 174 195 208 210 210 202 210 210 194 199 209 211 218 237 255 280 311 299 293 309 316 319 316 311 309 313 321 326 327 327 328 326 319 315
318 8 330 344 20 35 67 26 5 9 25 210 191 191 171 179 201 200 214 212 194 187 174 176 184 184 189 309 316 319 312 282 281 297 308 313 315 310 311 314 319 321 323 323 325 326 322 319 315
127 101 345 335 23 84 75 71 37 28 36 20 232 206 163 171 184 203 197 183 166 157 161 162 157 126 17 336 314 330 293 281 277 295 304 311 308 309 312 315 317 318 320 322 325 323 323 323 323
133 84 26 258 25 231 131 57 46 36 27 2 321 249 180 156 154 154 165 162 156 159 157 128 95 1 327 287 279 283 277 280 287 297 303 303 304 304 308 310 314 318 319 321 325 325 326 320 317
68 28 358 326 341 84 315 229 54 31 42 33 29 59 88 135 136 141 158 160 165 163 152 110 359 0 346 274 267 267 269 281 287 295 293 294 298 302 307 313 317 319 320 321 324 325 323 319 320
34 342 293 304 306 306 349 307 36 9 35 43 37 46 84 124 141 151 160 169 172 166 160 333 356 330 280 264 254 267 278 285 291 293 292 295 300 305 312 318 320 321 321 321 325 330 333 326 325
18 16 357 323 291 302 110 268 90 358 18 36 42 60 89 116 135 139 146 162 172 193 333 318 317 274 249 268 271 275 277 284 288 292 296 301 307 312 315 321 329 330 328 340 348 344 341 335 329
291 278 296 119 257 260 48 322 289 359 355 33 74 85 105 119 138 140 157 167 193 273 277 295 272 273 283 278 278 279 285 291 296 300 304 308 311 316 324 335 347 360 357 347 340 340 337 336 328
351 330 316 294 293 298 53 253 339 340 355 77 125 95 110 120 124 136 152 151 313 5 39 29 358 324 298 293 292 291 295 299 302 305 310 318 325 327 328 331 335 340 339 346 345 352 347 338 334
340 322 302 304 303 307 173 240 100 34 93 104 102 108 101 104 98 96 95 92 75 57 27 358 336 318 309 302 299 303 308 312 314 313 314 320 317 322 327 327 317 334 345 350 360 354 344 338 332
26 340 354 280 227 270 304 172 176 144 124 119 103 99 96 99 100 99 92 69 32 7 347 340 334 326 316 310 308 311 311 313 324 331 326 320 321 317 317 323 327 332 337 342 345 354 356 3 355
36 85 293 353 298 300 286 291 295 216 197 154 129 116 116 113 100 81 46 16 3 353 345 339 334 329 325 325 328 334 342 336 330 327 322 318 318 314 317 321 322 328 331 338 329 349 0 7 2
62 49 42 321 284 295 306 303 16 307 238 174 141 131 119 102 75 39 9 8 354 342 334 331 333 338 342 349 354 341 335 330 331 329 325 325 328 325 325 324 323 322 324 337 339 345 5 3 9
82 75 50 340 308 287 287 286 359 339 158 145 135 128 109 82 18 19 5 337 334 336 336 336 338 346 353 347 344 338 335 332 332 327 319 317 325 328 332 332 321 321 323 333 338 347 343 355 354